Birchwood, AK

3:58 AM AKDT on July 29, 2017 (GMT -0800)
Birchwood

Weather History for PABV - March, 2013

Change the Weather History Date:

Monday, March 4, 2013

  Actual Average Record
Temperature  
Mean Temperature 27 °F -  
Max Temperature 37 °F 28 °F 44 °F (1990)
Min Temperature 17 °F 11 °F -17 °F (1992)
Degree Days  
Heating Degree Days 38    
Moisture  
Dew Point 23 °F    
Average Humidity 94    
Maximum Humidity 100    
Minimum Humidity 80    
Precipitation  
Precipitation 0.00 in - - ()
Sea Level Pressure  
Sea Level Pressure 30.43 in    
Wind  
Wind Speed 1 mph (SSW)    
Max Wind Speed 7 mph    
Max Gust Speed -    
Visibility 10 miles    
Events      
Averages and records for this station are not official NWS values.
T = Trace of Precipitation, MM = Missing Value Source: NWS Daily Summary

Daily Weather History Graph

Daily Weather History Graph

Search for Another Location

Airport or City:

Trip Planner

Search our weather history database for the weather conditions in past years. The results will help you decide how hot, cold, wet, or windy it might be!

Date:

Astronomy

Mar. 04, 2013 Rise Set
Actual Time 7:48 AM AKST 6:32 PM AKST
Civil Twilight 7:04 AM AKST 7:15 PM AKST
Nautical Twilight 6:14 AM AKST 8:06 PM AKST
Astronomical Twilight 5:22 AM AKST 8:58 PM AKST
Moon 3:28 AM AKST (3/4) 10:01 AM AKST (3/4)
Length of Visible Light 12h 10m
Length of Day
10h 43m
Waning Gibbous, 50% of the Moon is Illuminated
Mar 4
Waning Gibbous
Mar 4
Last Quarter
Mar 11
New
Mar 19
First Quarter
Mar 27
Full

Hourly Weather History & Observations

Time (AKST) Temp. Windchill Dew Point Humidity Pressure Visibility Wind Dir Wind Speed Gust Speed Precip Events Conditions
12:16 AM 19.4 °F - 17.6 °F 93% 30.46 in 10.0 mi Calm Calm - N/A   Clear
12:36 AM 19.4 °F - 17.6 °F 93% 30.46 in 10.0 mi Calm Calm - N/A   Scattered Clouds
12:56 AM 21.2 °F - 19.4 °F 93% 30.46 in 10.0 mi Calm Calm - N/A   Overcast
1:16 AM 21.2 °F - 19.4 °F 93% 30.46 in 10.0 mi Calm Calm - N/A   Mostly Cloudy
1:36 AM 21.2 °F - 19.4 °F 93% 30.46 in 10.0 mi Calm Calm - N/A   Clear
1:56 AM 21.2 °F - 19.4 °F 93% 30.46 in 10.0 mi Calm Calm - N/A   Clear
2:16 AM 21.2 °F 16.4 °F 19.4 °F 93% 30.47 in 10.0 mi SSW 3.5 mph - N/A   Clear
2:36 AM 21.2 °F 14.9 °F 19.4 °F 93% 30.47 in 10.0 mi SW 4.6 mph - N/A   Clear
2:56 AM 21.2 °F 12.6 °F 19.4 °F 93% 30.48 in 10.0 mi South 6.9 mph - N/A   Clear
3:16 AM 21.2 °F 13.6 °F 19.4 °F 93% 30.47 in 10.0 mi WSW 5.8 mph - N/A   Clear
3:36 AM 21.2 °F 16.4 °F 17.6 °F 86% 30.48 in 10.0 mi South 3.5 mph - N/A   Clear
3:56 AM 19.4 °F - 17.6 °F 93% 30.48 in 10.0 mi Calm Calm - N/A   Clear
4:16 AM 19.4 °F 14.3 °F 17.6 °F 93% 30.47 in 10.0 mi ESE 3.5 mph - N/A   Clear
4:36 AM 19.4 °F - 17.6 °F 93% 30.47 in 10.0 mi Calm Calm - N/A   Partly Cloudy
4:56 AM 19.4 °F - 17.6 °F 93% 30.47 in 10.0 mi Calm Calm - N/A   Scattered Clouds
5:16 AM 17.6 °F - 17.6 °F 100% 30.47 in 10.0 mi Calm Calm - N/A   Partly Cloudy
5:36 AM 17.6 °F - 15.8 °F 93% 30.47 in 10.0 mi Calm Calm - N/A   Scattered Clouds
5:56 AM 19.4 °F - 17.6 °F 93% 30.46 in 10.0 mi Calm Calm - N/A   Overcast
6:16 AM 19.4 °F 12.8 °F 19.4 °F 100% 30.46 in 10.0 mi ENE 4.6 mph - N/A   Overcast
6:36 AM 19.4 °F - 19.4 °F 100% 30.47 in 10.0 mi Calm Calm - N/A   Overcast
6:56 AM 21.2 °F - 19.4 °F 93% 30.47 in 10.0 mi Calm Calm - N/A   Overcast
7:16 AM 21.2 °F 14.9 °F 21.2 °F 100% 30.47 in 10.0 mi SW 4.6 mph - N/A   Overcast
7:36 AM 21.2 °F 13.6 °F 19.4 °F 93% 30.48 in 10.0 mi SSW 5.8 mph - N/A   Overcast
7:56 AM 21.2 °F 16.4 °F 21.2 °F 100% 30.48 in 10.0 mi South 3.5 mph - N/A   Overcast
8:16 AM 23.0 °F - 21.2 °F 93% 30.47 in 10.0 mi Calm Calm - N/A   Overcast
8:36 AM 23.0 °F - 21.2 °F 93% 30.47 in 10.0 mi Calm Calm - N/A   Overcast
8:56 AM 23.0 °F - 21.2 °F 93% 30.47 in 10.0 mi Calm Calm - N/A   Overcast
9:16 AM 24.8 °F 20.5 °F 21.2 °F 86% 30.47 in 10.0 mi South 3.5 mph - N/A   Overcast
9:56 AM 26.6 °F - 21.2 °F 80% 30.47 in 10.0 mi Calm Calm - N/A   Overcast
10:16 AM 28.4 °F - 23.0 °F 80% 30.47 in 10.0 mi Calm Calm - N/A   Overcast
10:36 AM 28.4 °F - 24.8 °F 86% 30.47 in 10.0 mi Calm Calm - N/A   Overcast
10:56 AM 30.2 °F 26.7 °F 28.4 °F 93% 30.47 in 10.0 mi WSW 3.5 mph - N/A   Overcast
11:16 AM 30.2 °F 25.4 °F 28.4 °F 93% 30.47 in 10.0 mi West 4.6 mph - N/A   Scattered Clouds
11:36 AM 30.2 °F - 28.4 °F 93% 30.47 in 10.0 mi Calm Calm - N/A   Clear
11:56 AM 30.2 °F - 30.2 °F 100% 30.46 in 10.0 mi Calm Calm - N/A   Clear
12:16 PM 33.8 °F - 33.8 °F 100% 30.46 in 10.0 mi Calm Calm - N/A   Clear
12:36 PM 33.8 °F - 33.8 °F 100% 30.46 in 10.0 mi Calm Calm - N/A   Clear
12:56 PM 33.8 °F - 33.8 °F 100% 30.45 in 10.0 mi Calm Calm - N/A   Mostly Cloudy
1:16 PM 35.6 °F - 35.6 °F 100% 30.45 in 10.0 mi Calm Calm - N/A   Overcast
1:36 PM 37.4 °F - 35.6 °F 93% 30.44 in 10.0 mi Calm Calm - N/A   Overcast
1:56 PM 33.8 °F - 33.8 °F 100% 30.44 in 10.0 mi Calm Calm - N/A   Mostly Cloudy
2:16 PM 33.8 °F - - N/A% 30.43 in 10.0 mi Calm Calm - N/A   Clear
2:36 PM 33.8 °F - - N/A% 30.43 in 10.0 mi Calm Calm - N/A   Clear
2:56 PM 33.8 °F - - N/A% 30.42 in 10.0 mi Calm Calm - N/A   Clear
3:16 PM 32.0 °F - - N/A% 30.42 in 10.0 mi Calm Calm - N/A   Clear
3:36 PM 32.0 °F - - N/A% 30.41 in 10.0 mi Calm Calm - N/A   Clear
3:56 PM 33.8 °F - - N/A% 30.40 in 10.0 mi Calm Calm - N/A   Clear
4:16 PM 33.8 °F - - N/A% 30.40 in 10.0 mi Calm Calm - N/A   Clear
4:36 PM 33.8 °F - - N/A% 30.40 in 10.0 mi Calm Calm - N/A   Clear
4:56 PM 33.8 °F - - N/A% 30.40 in 10.0 mi Calm Calm - N/A   Clear
5:16 PM 32.0 °F 28.7 °F - N/A% 30.39 in 10.0 mi SW 3.5 mph - N/A   Clear
5:36 PM 33.8 °F 30.8 °F - N/A% 30.39 in 10.0 mi SW 3.5 mph - N/A   Clear
5:56 PM 33.8 °F - - N/A% 30.39 in 10.0 mi Calm Calm - N/A   Scattered Clouds
6:16 PM 33.8 °F - - N/A% 30.39 in 10.0 mi Calm Calm - N/A   Mostly Cloudy
6:36 PM 30.2 °F - - N/A% 30.39 in 10.0 mi Calm Calm - N/A   Scattered Clouds
6:56 PM 30.2 °F - - N/A% 30.39 in 10.0 mi Calm Calm - N/A   Clear
7:16 PM 28.4 °F - - N/A% 30.39 in 10.0 mi Calm Calm - N/A   Clear
7:36 PM 28.4 °F - - N/A% 30.38 in 10.0 mi Calm Calm - N/A   Clear
7:56 PM 28.4 °F - - N/A% 30.38 in 10.0 mi Calm Calm - N/A   Clear
8:16 PM 28.4 °F - - N/A% 30.37 in 10.0 mi Calm Calm - N/A   Clear
8:36 PM 28.4 °F - - N/A% 30.36 in 10.0 mi Calm Calm - N/A   Mostly Cloudy
8:56 PM 26.6 °F - - N/A% 30.36 in 10.0 mi Calm Calm - N/A   Overcast
9:16 PM 26.6 °F - - N/A% 30.36 in 10.0 mi Calm Calm - N/A   Scattered Clouds
10:36 PM 26.6 °F - - N/A% 30.32 in 10.0 mi Calm Calm - N/A   Partly Cloudy
10:56 PM 24.8 °F - - N/A% 30.32 in 10.0 mi Calm Calm - N/A   Scattered Clouds
11:16 PM 24.8 °F - - N/A% 30.31 in 10.0 mi Calm Calm - N/A   Scattered Clouds
11:36 PM 24.8 °F 20.5 °F - N/A% 30.31 in 10.0 mi WSW 3.5 mph - N/A   Scattered Clouds
11:56 PM 24.8 °F - - N/A% 30.30 in 10.0 mi Calm Calm - N/A   Scattered Clouds